Theta_e
327 326 326 325 325 322 323 323 323 324 324 325 325 326 327 327 327 326 325 323 322 321 321 321 319 317 317 316 316 316 316 315
327 325 325 323 324 322 322 322 322 324 324 324 324 324 326 326 326 326 325 323 321 320 321 321 320 319 318 317 317 316 316 314
327 325 325 324 323 323 321 321 322 322 323 323 323 323 324 325 324 323 324 322 320 320 321 321 320 320 319 318 317 316 315 312
328 325 324 324 323 323 323 322 321 322 323 323 323 322 322 322 322 323 323 323 322 320 320 320 321 320 320 318 317 317 316 312
329 327 324 323 323 324 323 322 320 321 322 322 322 321 319 322 322 320 319 320 321 321 322 321 321 321 321 319 318 318 317 315
329 328 324 323 322 323 322 322 319 320 321 321 321 320 319 321 323 322 321 320 322 321 320 321 320 321 321 321 319 319 319 319
329 327 325 325 323 323 321 322 320 320 321 321 319 320 319 320 321 322 323 322 321 319 317 318 318 321 321 322 322 321 320 319
330 328 326 325 324 323 322 321 320 320 321 321 320 320 320 319 320 321 321 320 319 317 317 317 318 318 321 322 323 323 323 321
330 328 326 325 324 322 322 322 321 319 318 319 319 320 320 320 321 320 320 319 318 318 319 317 315 316 319 320 321 323 323 322
330 329 326 324 324 323 322 322 321 321 320 319 319 319 319 320 321 320 319 319 319 320 320 321 321 320 321 322 322 323 323 322
329 329 327 325 324 323 322 322 322 321 321 321 320 319 319 319 320 320 320 319 319 319 320 320 320 320 320 321 321 321 321 321
328 329 327 325 324 323 321 321 321 321 322 322 321 321 320 320 319 319 319 319 319 319 319 319 320 320 320 320 320 321 321 321
327 328 328 326 325 324 321 319 320 320 321 321 321 321 321 320 320 319 319 318 319 319 319 319 320 319 320 320 321 321 320 320
327 327 328 327 326 325 324 322 321 322 321 321 321 321 321 321 320 319 319 320 319 319 320 320 320 320 320 321 321 320 318 319
327 327 327 327 326 325 325 324 323 323 322 322 321 321 321 321 320 320 320 320 319 319 319 319 320 320 320 321 321 320 322 322
324 326 328 327 326 326 325 325 324 323 323 323 322 322 321 321 320 320 319 319 319 319 320 320 321 322 322 323 322 321 321 319
323 323 325 328 327 326 326 326 325 324 323 323 323 322 321 321 321 320 320 321 321 321 322 322 323 323 322 321 321 319 317 316
323 322 322 325 326 326 326 326 326 325 324 324 323 323 322 321 321 321 321 321 321 322 322 322 321 318 318 317 315 313 311 308
321 322 319 320 324 325 326 326 325 325 324 324 323 322 322 321 321 321 321 320 318 314 311 309 308 305 307 309 308 304 300 296
Wind_Speed
8 6 6 5 5 7 10 9 9 12 12 17 28 40 37 37 40 35 41 38 34 32 25 22 22 21 20 19 18 17 16 13
8 8 7 6 6 8 10 11 10 15 20 13 19 23 33 28 35 38 41 36 33 29 24 22 22 21 19 18 17 17 14 12
10 10 10 9 9 9 10 12 12 15 19 18 18 20 23 28 31 29 28 32 31 30 25 24 22 19 18 18 16 16 11 16
13 13 14 12 11 11 12 12 17 18 22 23 24 22 20 21 25 27 26 28 26 28 24 23 22 20 21 21 19 18 13 16
13 14 16 16 14 12 12 13 16 18 24 23 29 21 25 18 24 28 30 29 29 30 24 22 21 20 19 21 20 18 16 15
15 15 18 18 16 15 13 14 17 19 20 21 23 19 22 20 22 23 28 32 32 29 25 23 19 19 18 17 20 21 21 19
15 16 18 19 19 17 17 17 18 19 21 21 23 22 23 20 23 22 25 30 29 37 33 21 21 18 17 21 20 21 22 21
16 17 16 20 21 20 18 19 20 20 21 22 25 22 23 23 23 23 25 23 29 34 34 34 33 27 22 22 22 23 23 24
18 18 17 22 23 22 21 21 21 22 22 22 24 25 22 24 25 25 23 23 23 24 26 28 33 32 30 29 28 22 21 24
19 19 20 22 24 24 24 24 23 24 26 25 24 24 25 26 24 24 23 22 21 20 21 24 25 28 29 25 24 26 25 27
17 18 21 22 24 24 24 25 26 26 28 29 29 28 27 27 28 28 26 24 23 23 26 25 28 28 26 26 28 27 27 29
16 17 22 23 23 25 26 27 27 28 29 29 29 30 31 31 30 29 29 26 26 27 28 28 30 32 31 31 32 30 29 30
13 15 19 24 25 27 28 28 29 28 28 29 30 29 30 32 33 32 30 31 29 30 30 31 32 33 34 33 32 31 31 32
11 14 16 19 25 26 28 29 30 28 28 29 29 30 31 30 30 30 28 26 27 27 28 29 29 29 29 29 30 34 38 35
10 12 15 18 24 26 28 28 29 29 30 30 30 30 29 27 27 27 27 27 26 27 28 29 29 28 28 28 29 32 32 31
10 12 14 15 20 23 25 25 27 28 29 28 27 25 24 24 24 24 24 25 27 27 26 26 26 26 26 28 29 33 34 34
10 12 13 14 18 20 22 22 23 24 25 24 22 22 22 22 22 22 23 25 24 23 23 23 24 25 30 33 33 26 25 25
11 11 11 11 16 17 19 20 20 21 20 19 18 19 19 19 19 20 21 20 19 20 21 20 15 13 17 17 14 14 16 12
12 10 6 11 12 16 16 17 19 19 17 15 14 13 13 12 13 12 11 9 8 7 7 5 4 7 6 5 4 2 5 7
Wind_Direction
214 202 193 189 192 196 185 187 173 164 110 118 153 150 156 166 172 172 176 176 179 169 170 172 169 167 171 172 175 177 178 181
195 190 185 176 188 184 184 177 167 147 132 101 118 124 142 141 149 164 175 175 177 168 174 175 174 176 177 175 180 181 167 178
192 189 185 189 194 189 178 177 175 166 140 135 121 126 136 144 163 172 179 173 175 175 175 174 178 177 179 182 182 191 168 181
189 181 189 193 194 196 186 175 185 181 162 148 143 143 147 162 176 185 182 182 179 181 184 180 181 186 192 188 190 200 187 196
185 183 183 191 198 194 187 173 176 179 176 165 164 161 162 174 174 181 187 195 198 186 181 181 187 193 194 195 201 209 204 202
184 192 176 185 191 192 186 177 174 177 179 169 161 163 170 168 172 174 185 199 206 195 191 191 193 202 203 206 209 216 220 220
182 186 172 175 185 187 183 181 180 181 181 181 179 178 169 174 174 176 184 182 185 200 214 215 217 216 218 222 222 224 226 229
187 184 179 175 182 189 187 184 181 186 188 188 183 180 179 179 188 183 183 185 187 189 198 204 213 222 231 236 232 231 234 234
197 187 187 179 183 189 192 191 190 189 188 188 193 195 187 186 191 193 190 188 195 196 204 220 227 227 239 240 238 244 244 244
198 189 194 183 184 188 194 194 196 197 198 197 198 202 201 200 202 202 200 204 208 208 211 216 221 227 234 243 246 246 246 249
196 192 191 193 184 187 196 200 197 198 199 199 201 205 208 212 211 211 212 214 218 221 222 223 226 230 236 241 245 248 251 254
193 194 187 195 187 185 192 203 201 199 199 202 204 205 210 213 215 216 217 218 219 223 227 231 234 234 238 242 246 250 251 255
186 193 188 191 196 187 191 199 204 205 203 202 206 208 209 212 215 219 220 223 228 231 232 232 233 235 239 241 244 244 246 252
183 185 192 195 199 196 193 197 204 205 205 204 205 207 210 213 216 218 221 224 228 229 230 234 237 239 242 245 244 243 251 257
194 194 196 198 200 202 200 198 203 205 206 205 205 207 210 212 215 217 218 222 226 229 232 236 239 242 245 248 247 251 258 261
201 209 206 198 199 200 204 200 201 204 208 210 211 209 210 213 215 218 221 224 226 228 233 238 242 246 250 252 256 257 259 257
213 203 220 209 200 200 200 193 198 201 206 210 212 213 213 215 217 219 222 226 231 235 239 245 250 252 257 261 260 256 260 260
258 216 210 216 203 198 200 190 185 191 198 202 206 211 213 214 217 219 224 227 231 237 239 242 234 234 250 257 267 266 264 275
268 272 203 192 194 186 187 181 177 178 183 187 190 196 205 211 214 218 218 202 176 146 114 103 87 30 8 342 313 140 104 85